User: anonymous   Login
Location: Branche des Alpilles
(43.6087°N, 4.6976°E)
Time: 16:17:28
(UTC+00:00)
Language:

Cosmos 2228 Rocket - Orbit

View from above orbital plane
View from above orbital plane
View from above satellite
View from above satellite

Ground track
Ground track

The orbit data is extracted from the following two-line orbital elements,

1 22287U 92094B   21059.53556698  .00000056  00000-0  45572-5 0  9998
2 22287  82.5214 258.6991 0023626 221.5439 138.3979 14.78171656518325
Epoch (UTC): 28 February 2021 12:51:12
Eccentricity: 0.0023626
inclination: 82.5214°
perigee height: 618 km
apogee height: 651 km
right ascension of ascending node: 258.6991°
argument of perigee: 221.5439°
revolutions per day: 14.78171656
mean anomaly at epoch: 138.3979°
orbit number at epoch: 51832

The dashed part of the orbit path shows where the satellite is in the earth's shadow,  

DLR